AirNav   Bose A20 Aviation Headset
 
 752 users online  

29M Waite Field Airport
Durand, Michigan, USA

GOING TO DURAND?


FAA INFORMATION EFFECTIVE 11 OCTOBER 2018

Location

FAA Identifier: 29M
Lat/Long: 42-53-26.6000N / 083-55-55.3510W
42-53.443333N / 083-55.922517W
42.8907222 / -83.9320419
(estimated)
Elevation: 812 ft. / 247 m
From city: 3 miles SE of DURAND, MI
Time zone: UTC -4 (UTC -5 during Standard Time)
Zip code: 48429

Airport Operations

Airport use: Open to the public
Activation date: 07/2012
Control tower: no
ARTCC: CLEVELAND CENTER
FSS: LANSING FLIGHT SERVICE STATION
NOTAMs facility: LAN (NOTAM-D service available)
Attendance: UNATNDD
Wind indicator: yes
Segmented circle: no

Airport Communications

CTAF: 122.9
WX ASOS at FNT (9 nm NE): PHONE 810-342-7804
WX AWOS-3 at RNP (11 nm NW): 118.025 (989-729-2967)
WX AWOS-3 at OZW (16 nm S): 118.875 (517-546-4450)

Nearby radio navigation aids

VOR radial/distance  VOR name  Freq  Var
FNTr247/9.3FLINT VORTAC116.9006W
SVMr336/32.5SALEM VORTAC114.3003W
MBSr174/39.0SAGINAW VOR/DME112.9003W

 
NDB name  Hdg/Dist  Freq  Var  ID
PETLI208/5.026906WFN ..-. -.

Airport Services

Runway Information

Runway 3/21

Dimensions: 3400 x 60 ft. / 1036 x 18 m
Surface: turf, in poor condition
ROUGH WITH SLOPING TERRAIN.
Runway edge lights: RY & DSPLCD THLD MARKED WITH 3 FT YELLOW CONES.
RUNWAY 3  RUNWAY 21
Traffic pattern: leftright
Displaced threshold: 600 ft.no
Obstructions: 27 ft. tree, 540 ft. from runway, 45 ft. right of centerline, 20:1 slope to clear
APCH RATIO AT DSPLCD THLD 25:1 OVER 45 FT TREE, 1140 FT DSTC, 45 FT R.
64 ft. tree, 704 ft. from runway, 125 ft. left of centerline, 11:1 slope to clear

Airport Ownership and Management from official FAA records

Ownership: Privately-owned
Owner: LEE A. WAITE
7294 S. SHERIDAN
DURAND, MI 48429
Phone (989) 288-0564
OWNER LIVES ON PREMISES.
Manager: LEE A. WAITE
7294 S. SHERIDAN
DURAND, MI 48429
Phone 989-288-3156

Airport Operational Statistics

Aircraft operations: 100/year *
50% transient general aviation
50% local general aviation
* for 12-month period ending 31 December 2015

Additional Remarks

DEER ON & INVOF ARPT.
FOR IFR CLEARANCE CTC CLEVELAND ARTCC (ZOB) 126.75/348.75 OR CALL ZOB 440-774-0224.

Instrument Procedures

There are no published instrument procedures at 29M.

Some nearby airports with instrument procedures:

9G2 - Price's Airport (9 nm SE)
KFNT - Bishop International Airport (9 nm NE)
KRNP - Owosso Community Airport (11 nm NW)
KOZW - Livingston County Spencer J Hardy Airport (16 nm S)
KPTK - Oakland County International Airport (26 nm SE)
 
Loc | Ops | Rwys | IFR | FBO | Links
Com | Nav | Svcs | Stats | Notes


 
Aerial photo
No photo
 
Airport distance calculator
Flying to Waite Field Airport? Find the distance to fly.

From to 29M

Sunrise and sunset
Times for 19-Oct-2018
 Local
(UTC-4)
 Zulu
(UTC)
Morning civil twilight07:2611:26
Sunrise07:5511:55
Sunset18:4722:47
Evening civil twilight19:1523:15

Current date and time
Zulu (UTC)  20-Oct-2018 03:48:32
Local (UTC-4)  19-Oct-2018 23:48:32
 
METAR
KFNT 
9nm NE 
200253Z AUTO 22013G20KT 8SM OVC012 09/07 A2970 RMK AO2 SLP061 T00890072 58024
KRNP 
11nm NW 
200335Z AUTO 24010G16KT 10SM OVC010 10/09 A2969 RMK AO2 T01030091
KOZW 
17nm S 
200335Z AUTO 24011G20KT 7SM DZ OVC008 09/09 A2972 RMK AO2 T00910085
TAF
KFNT 
9nm NE 
191956Z 1920/2018 23013G23KT P6SM SCT060 OVC100 TEMPO 1920/1922 P6SM -SHRA OVC040 FM192300 23013G23KT P6SM OVC030 FM200400 24014G21KT P6SM BKN020 FM201100 28009KT P6SM SCT040 FM201600 28012G22KT P6SM BKN050
NOTAMs
Click for the latest NOTAMs
NOTAMs are issued by the DoD/FAA and will open in a separate window not controlled by AirNav.

 

 
 

Would you like to see your business listed on this page?

 If your business provides an interesting product or service to pilots, flight crews, aircraft, or users of the Waite Field Airport, you should consider listing it here.  To start the listing process, click on the button below
 
Add a business
 

Other Pages about Waite Field Airport

Page from the Michigan Airport Directory (PDF)
 
Update a link
 
Copyright © AirNav, LLC. All rights reserved. Privacy Policy  Contact